Tracking 35237 objects as of 6-Sep-2026
HD Live streaming from Space Station
objects crossing your sky now

KAITUO 1A


KAITUO 1A is no longer on orbit
KAITUO 1A is classified as:


NORAD ID: 40904
Int'l Code: 2015-049F
Launch date: September 19, 2015
Source: People's Republic of China (PRC)
Launch site: Taiyaun Space Center, China (TSC)
Decay date: 2024-11-16
Your satellite tracking list
Your tracking list is empty




NASA's NSSDC Master Catalog

Two Line Element Set (TLE):
1 40904U 15049F   24317.71731501  .16110311  27416-5  24573-3 0  9991
2 40904  97.4358 343.2801 0007635 230.2557 129.8075 16.48327697507660
Source of the keplerian elements: AFSPC